Location: Newark
(59.8814°N, 10.8258°E)
Time: 16:29:41
(UTC+00:00)

Envisat - Pass Details

Date: 25 January 2020
Orbit: 764 x 766 km, 98.1° (Epoch: 17 February)

Event Time Altitude Azimuth Distance (km) Brightness Sun altitude
Rises 04:27:45 0° 23° (NNE) 3,248 6.6 -24.1°
Reaches altitude 10° 04:31:04 10° 45° (NE) 2,316 6.1 -23.7°
Maximum altitude 04:34:03 15° 82° (E) 1,957 6.1 -23.3°
Drops below altitude 10° 04:37:02 10° 118° (ESE) 2,306 6.3 -22.9°
Sets 04:40:18 0° 140° (SE) 3,226 6.8 -22.5°
